Zurück zum Katalog

THORAD AGENA D DEB

AktivPO
NORAD 4658·DEBRIS·🇺🇸 United States

Gestartet Apr 8, 1970 von Vandenberg Space Force Base

Loading…

Nächste Überflüge (nächste 24 Stunden)

TLE

AktuellSource: Space-Track

Epoche: Sep 14, 2026, 03:48 UTC

1 04658U 70025AS  26257.15837721  .00001424  00000-0  10093-2 0  9999
2 04658  99.9458 235.3670 0025371 325.3507  34.6000 13.99494495830841

Verfolge THORAD AGENA D DEB in Echtzeit mit AllMySat

Download on the App Store